H1 CPF 2 NER 2022 11 10 9 314 01 glonass137 H2 1705501 9137 42939 2022 11 10 0 0 0 2022 11 13 23 45 0 900 1 1 0 0 0 1 H9 10 0 59893 0.00000 0 24360912.137 -399363.058 7540847.300 10 0 59893 900.00000 0 25107290.033 -440174.138 4452084.132 10 0 59893 1800.00000 0 25463296.715 -546764.608 1276779.775 10 0 59893 2700.00000 0 25418311.795 -665505.384 -1923344.923 10 0 59893 3600.00000 0 24974906.317 -742053.529 -5086062.635 10 0 59893 4500.00000 0 24148735.368 -723903.787 -8149855.518 10 0 59893 5400.00000 0 22967899.511 -562863.712 -11055118.520 10 0 59893 6300.00000 0 21471801.601 -217346.338 -13745325.799 10 0 59893 7200.00000 0 19709546.931 345617.936 -16168136.707 10 0 59893 8100.00000 0 17737954.067 1148736.685 -18276419.215 10 0 59893 9000.00000 0 15619260.099 2203248.776 -20029170.408 10 0 59893 9900.00000 0 13418616.828 3508207.757 -21392315.911 10 0 59893 10800.00000 0 11201482.999 5050286.661 -22339372.714 10 0 59893 11700.00000 0 9031021.754 6804113.420 -22851962.732 10 0 59893 12600.00000 0 6965612.096 8733123.654 -22920167.404 10 0 59893 13500.00000 0 5056577.916 10790895.849 -22542716.835 10 0 59893 14400.00000 0 3346228.801 12922913.687 -21727010.212 10 0 59893 15300.00000 0 1866293.557 15068682.230 -20488967.390 10 0 59893 16200.00000 0 636810.715 17164109.953 -18852714.833 10 0 59893 17100.00000 0 -334479.040 19144057.404 -16850112.158 10 0 59893 18000.00000 0 -1052214.560 20944946.170 -14520128.619 10 0 59893 18900.00000 0 -1532968.333 22507319.309 -11908081.765 10 0 59893 19800.00000 0 -1804293.381 23778246.402 -9064753.122 10 0 59893 20700.00000 0 -1903304.598 24713472.722 -6045398.304 10 0 59893 21600.00000 0 -1874855.792 25279222.852 -2908670.977 10 0 59893 22500.00000 0 -1769390.624 25453583.511 284518.194 10 0 59893 23400.00000 0 -1640559.204 25227408.023 3472185.078 10 0 59893 24300.00000 0 -1542701.918 24604704.994 6592474.890 10 0 59893 25200.00000 0 -1528307.433 23602495.394 9584860.755 10 0 59893 26100.00000 0 -1645552.701 22250144.482 12391314.663 10 0 59893 27000.00000 0 -1936029.131 20588196.941 14957428.244 10 0 59893 27900.00000 0 -2432751.106 18666764.159 17233462.029 10 0 59893 28800.00000 0 -3158530.951 16543531.110 19175303.292 10 0 59893 29700.00000 0 -4124789.079 14281465.830 20745314.650 10 0 59893 30600.00000 0 -5330849.800 11946326.469 21913057.782 10 0 59893 31500.00000 0 -6763753.029 9604069.151 22655878.932 10 0 59893 32400.00000 0 -8398590.749 7318263.554 22959345.594 10 0 59893 33300.00000 0 -10199355.421 5147622.654 22817526.336 10 0 59893 34200.00000 0 -12120266.239 3143748.308 22233108.538 10 0 59893 35100.00000 0 -14107519.432 1349185.311 21217351.629 10 0 59893 36000.00000 0 -16101391.125 -204136.099 19789876.256 10 0 59893 36900.00000 0 -18038606.406 -1496005.263 17978292.764 10 0 59893 37800.00000 0 -19854876.896 -2518538.233 15817675.214 10 0 59893 38700.00000 0 -21487501.775 -3276262.302 13349890.114 10 0 59893 39600.00000 0 -22877924.003 -3785674.749 10622791.912 10 0 59893 40500.00000 0 -23974134.775 -4074294.710 7689299.971 10 0 59893 41400.00000 0 -24732825.343 -4179248.451 4606374.332 10 0 59893 42300.00000 0 -25121195.105 -4145447.985 1433909.917 10 0 59893 43200.00000 0 -25118339.310 -4023440.518 -1766429.363 10 0 59893 44100.00000 0 -24716157.155 -3867020.306 -4932413.540 10 0 59893 45000.00000 0 -23919741.131 -3730704.795 -8002462.491 10 0 59893 45900.00000 0 -22747230.479 -3667182.912 -10916850.396 10 0 59893 46800.00000 0 -21229134.219 -3724844.664 -13618874.494 10 0 59893 47700.00000 0 -19407151.782 -3945497.826 -16055964.524 10 0 59893 48600.00000 0 -17332540.596 -4362369.518 -18180710.649 10 0 59893 49500.00000 0 -15064098.993 -4998478.325 -19951789.411 10 0 59893 50400.00000 0 -12665849.095 -5865446.761 -21334769.451 10 0 59893 51300.00000 0 -10204516.712 -6962805.140 -22302781.344 10 0 59893 52200.00000 0 -7746913.563 -8277817.068 -22837038.742 10 0 59893 53100.00000 0 -5357331.118 -9785834.589 -22927200.976 10 0 59893 54000.00000 0 -3095054.435 -11451168.764 -22571570.475 10 0 59893 54900.00000 0 -1012099.090 -13228439.677 -21777121.555 10 0 59893 55800.00000 0 848735.167 -15064349.691 -20559360.324 10 0 59893 56700.00000 0 2455413.974 -16899806.030 -18942018.700 10 0 59893 57600.00000 0 3787757.787 -18672304.047 -16956588.659 10 0 59893 58500.00000 0 4838027.131 -20318471.510 -14641705.897 10 0 59893 59400.00000 0 5610980.880 -21776667.474 -12042394.978 10 0 59893 60300.00000 0 6123406.885 -22989526.950 -9209190.714 10 0 59893 61200.00000 0 6403146.355 -23906344.704 -6197153.059 10 0 59893 62100.00000 0 6487654.703 -24485198.352 -3064794.836 10 0 59893 63000.00000 0 6422161.005 -24694721.775 127056.646 10 0 59893 63900.00000 0 6257504.959 -24515454.601 3316441.588 10 0 59893 64800.00000 0 6047743.719 -23940711.342 6441470.153 10 0 59893 65700.00000 0 5847630.498 -22976933.944 9441521.845 10 0 59893 66600.00000 0 5710071.940 -21643513.193 12258418.404 10 0 59893 67500.00000 0 5683671.999 -19972086.626 14837547.637 10 0 59893 68400.00000 0 5810466.120 -18005342.326 17128916.729 10 0 59893 69300.00000 0 6123941.344 -15795378.511 19088115.064 10 0 59893 70200.00000 0 6647425.808 -13401687.030 20677168.632 10 0 59893 71100.00000 0 7392915.577 -10888844.226 21865270.253 10 0 59893 72000.00000 0 8360388.449 -8324004.549 22629372.165 10 0 59893 72900.00000 0 9537634.108 -5774300.170 22954630.238 10 0 59893 73800.00000 0 10900608.675 -3304253.452 22834691.646 10 0 59893 74700.00000 0 12414299.837 -973308.712 22271820.611 10 0 59893 75600.00000 0 14034067.750 1166415.512 21276859.708 10 0 59893 76500.00000 0 15707406.997 3072061.330 19869026.967 10 0 59893 77400.00000 0 17376057.315 4711574.002 18075552.061 10 0 59893 78300.00000 0 18978376.029 6064788.667 15931157.658 10 0 59893 79200.00000 0 20451873.910 7124016.638 13477394.958 10 0 59893 80100.00000 0 21735808.776 7894107.247 10761845.325 10 0 59893 81000.00000 0 22773728.497 8391983.151 7837202.689 10 0 59893 81900.00000 0 23515856.405 8645669.000 4760253.804 10 0 59893 82800.00000 0 23921218.250 8692854.689 1590775.955 10 0 59893 83700.00000 0 23959420.595 8579054.378 -1609626.441 10 0 59893 84600.00000 0 23612004.627 8355439.593 -4778723.482 10 0 59893 85500.00000 0 22873317.369 8076438.822 -7854875.540 10 0 59894 0.00000 0 21750862.749 7797206.100 -10778238.535 10 0 59894 900.00000 0 20265115.952 7571066.558 -13491935.978 10 0 59894 1800.00000 0 18448809.735 7447048.517 -15943170.226 10 0 59894 2700.00000 0 16345720.060 7467607.109 -18084255.956 10 0 59894 3600.00000 0 14009003.030 7666637.069 -19873551.300 10 0 59894 4500.00000 0 11499152.038 8067859.436 -21276269.858 10 0 59894 5400.00000 0 8881660.564 8683651.057 -22265157.548 10 0 59894 6300.00000 0 6224488.084 9514366.932 -22821021.322 10 0 59894 7200.00000 0 3595434.740 10548184.477 -22933099.730 10 0 59894 8100.00000 0 1059533.907 11761476.676 -22599268.570 10 0 59894 9000.00000 0 -1323429.253 13119698.825 -21826077.975 10 0 59894 9900.00000 0 -3501170.488 14578751.841 -20628620.575 10 0 59894 10800.00000 0 -5430837.562 16086765.119 -19030233.560 10 0 59894 11700.00000 0 -7080540.460 17586224.256 -17062040.609 10 0 59894 12600.00000 0 -8430418.177 19016354.385 -14762342.723 10 0 59894 13500.00000 0 -9473199.148 20315659.121 -12175869.893 10 0 59894 14400.00000 0 -10214233.537 21424508.503 -9352908.226 10 0 59894 15300.00000 0 -10670997.786 22287667.183 -6348319.654 10 0 59894 16200.00000 0 -10872093.957 22856656.583 -3220473.502 10 0 59894 17100.00000 0 -10855787.590 23091851.737 -30110.828 10 0 59894 18000.00000 0 -10668147.123 22964224.631 3160835.976 10 0 59894 18900.00000 0 -10360864.539 22456660.836 6290445.210 10 0 59894 19800.00000 0 -9988850.206 21564794.100 9298005.996 10 0 59894 20700.00000 0 -9607704.062 20297323.910 12125193.056 10 0 59894 21600.00000 0 -9271170.334 18675802.641 14717193.524 10 0 59894 22500.00000 0 -9028683.313 16733901.031 17023764.251 10 0 59894 23400.00000 0 -8923107.678 14516182.423 19000199.560 10 0 59894 24300.00000 0 -8988768.438 12076436.474 20608191.401 10 0 59894 25200.00000 0 -9249853.333 9475641.031 21816566.022 10 0 59894 26100.00000 0 -9719254.810 6779636.216 22601883.591 10 0 59894 27000.00000 0 -10397900.448 4056606.280 22948889.887 10 0 59894 27900.00000 0 -11274600.332 1374472.597 22850811.759 10 0 59894 28800.00000 0 -12326418.475 -1201695.191 22309490.850 10 0 59894 29700.00000 0 -13519553.664 -3612143.731 21335352.900 10 0 59894 30600.00000 0 -14810693.977 -5804675.136 19947212.786 10 0 59894 31500.00000 0 -16148789.376 -7736568.693 18171918.408 10 0 59894 32400.00000 0 -17477169.280 -9376106.150 16043839.388 10 0 59894 33300.00000 0 -18735917.319 -10703637.715 13604209.468 10 0 59894 34200.00000 0 -19864404.302 -11712144.788 10900334.377 10 0 59894 35100.00000 0 -20803873.424 -12407276.405 7984679.697 10 0 59894 36000.00000 0 -21499968.977 -12806858.193 4913855.721 10 0 59894 36900.00000 0 -21905101.725 -12939894.862 1747518.792 10 0 59894 37800.00000 0 -21980550.520 -12845108.641 -1452789.587 10 0 59894 38700.00000 0 -21698210.534 -12569075.869 -4624843.011 10 0 59894 39600.00000 0 -21041913.329 -12164041.135 -7706945.748 10 0 59894 40500.00000 0 -20008261.793 -11685502.135 -10639139.272 10 0 59894 41400.00000 0 -18606943.545 -11189668.299 -13364375.497 10 0 59894 42300.00000 0 -16860508.587 -10730901.642 -15829632.922 10 0 59894 43200.00000 0 -14803619.521 -10359249.008 -17986953.436 10 0 59894 44100.00000 0 -12481805.099 -10118170.933 -19794379.083 10 0 59894 45000.00000 0 -9949768.841 -10042563.841 -21216770.290 10 0 59894 45900.00000 0 -7269323.070 -10157159.647 -22226489.668 10 0 59894 46800.00000 0 -4507034.302 -10475370.774 -22803938.242 10 0 59894 47700.00000 0 -1731678.045 -10998629.512 -22937934.003 10 0 59894 48600.00000 0 988391.358 -11716249.737 -22625925.798 10 0 59894 49500.00000 0 3587846.763 -12605816.896 -21874038.798 10 0 59894 50400.00000 0 6006862.185 -13634089.818 -20696950.969 10 0 59894 51300.00000 0 8193352.562 -14758376.431 -19117603.245 10 0 59894 52200.00000 0 10104887.027 -15928325.429 -17166749.179 10 0 59894 53100.00000 0 11710197.081 -17088058.462 -14882352.987 10 0 59894 54000.00000 0 12990218.160 -18178553.033 -12308847.767 10 0 59894 54900.00000 0 13938622.615 -19140175.749 -9496268.368 10 0 59894 55800.00000 0 14561823.378 -19915259.117 -6499275.977 10 0 59894 56700.00000 0 14878449.885 -20450613.292 -3376093.528 10 0 59894 57600.00000 0 14918319.917 -20699866.862 -187372.856 10 0 59894 58500.00000 0 14720952.109 -20625537.977 3004984.059 10 0 59894 59400.00000 0 14333683.127 -20200748.534 6139026.607 10 0 59894 60300.00000 0 13809469.981 -19410509.134 9153956.345 10 0 59894 61200.00000 0 13204470.939 -18252520.682 11991303.608 10 0 59894 62100.00000 0 12575507.577 -16737458.753 14596057.224 10 0 59894 63000.00000 0 11977515.180 -14888728.437 16917725.794 10 0 59894 63900.00000 0 11461088.912 -12741699.538 18911310.325 10 0 59894 64800.00000 0 11070228.855 -10342453.410 20538170.118 10 0 59894 65700.00000 0 10840378.478 -7746092.859 21766765.887 10 0 59894 66600.00000 0 10796838.704 -5014684.538 22573266.404 10 0 59894 67500.00000 0 10953623.970 -2214918.180 22942007.681 10 0 59894 68400.00000 0 11312808.277 584421.441 22865796.240 10 0 59894 69300.00000 0 11864388.905 3315066.187 22346050.821 10 0 59894 70200.00000 0 12586673.973 5911852.914 21392779.736 10 0 59894 71100.00000 0 13447178.333 8315182.388 20024393.866 10 0 59894 72000.00000 0 14403991.059 10473247.709 18267358.267 10 0 59894 72900.00000 0 15407558.137 12343940.617 16155688.243 10 0 59894 73800.00000 0 16402806.307 13896356.993 13730298.585 10 0 59894 74700.00000 0 17331519.574 15111839.364 11038217.696 10 0 59894 75600.00000 0 18134868.847 15984513.239 8131680.918 10 0 59894 76500.00000 0 18755988.228 16521295.094 5067120.008 10 0 59894 77400.00000 0 19142489.158 16741371.950 1904068.097 10 0 59894 78300.00000 0 19248805.592 16675174.688 -1295998.632 10 0 59894 79200.00000 0 19038270.379 16362888.843 -4470859.767 10 0 59894 80100.00000 0 18484833.972 15852566.174 -7558765.987 10 0 59894 81000.00000 0 17574351.633 15197917.449 -10499646.558 10 0 59894 81900.00000 0 16305383.465 14455880.455 -13236284.674 10 0 59894 82800.00000 0 14689472.186 13684066.802 -15715436.927 10 0 59894 83700.00000 0 12750885.774 12938196.315 -17888874.472 10 0 59894 84600.00000 0 10525834.720 12269628.113 -19714325.168 10 0 59894 85500.00000 0 8061195.912 11723093.307 -21156298.024 10 0 59895 0.00000 0 5412796.113 11334725.463 -22186773.869 10 0 59895 900.00000 0 2643324.762 11130471.968 -22785749.446 10 0 59895 1800.00000 0 -180033.623 11124953.826 -22941623.330 10 0 59895 2700.00000 0 -2988153.920 11320821.097 -22651418.428 10 0 59895 3600.00000 0 -5712602.379 11708631.470 -21920835.623 10 0 59895 4500.00000 0 -8288238.398 12267256.503 -20764138.503 10 0 59895 5400.00000 0 -10655678.310 12964798.133 -19203871.590 10 0 59895 6300.00000 0 -12763519.459 13759976.486 -17270417.704 10 0 59895 7200.00000 0 -14570232.819 14603930.183 -15001403.231 10 0 59895 8100.00000 0 -16045646.438 15442352.970 -12440962.921 10 0 59895 9000.00000 0 -17171959.094 16217876.323 -9638878.579 10 0 59895 9900.00000 0 -17944243.131 16872597.260 -6649608.563 10 0 59895 10800.00000 0 -18370417.003 17350644.530 -3531227.114 10 0 59895 11700.00000 0 -18470690.194 17600674.660 -344294.336 10 0 59895 12600.00000 0 -18276505.294 17578192.361 2849320.857 10 0 59895 13500.00000 0 -17829023.135 17247597.259 5987641.739 10 0 59895 14400.00000 0 -17177215.903 16583870.429 9009785.211 10 0 59895 15300.00000 0 -16375649.444 15573829.527 11857140.184 10 0 59895 16200.00000 0 -15482048.816 14216899.411 14474500.183 10 0 59895 17100.00000 0 -14554749.894 12525365.447 16811128.499 10 0 59895 18000.00000 0 -13650144.331 10524098.392 18821735.667 10 0 59895 18900.00000 0 -12820225.100 8249761.584 20467350.999 10 0 59895 19800.00000 0 -12110335.349 5749532.619 21716072.067 10 0 59895 20700.00000 0 -11557214.621 3079391.719 22543678.325 10 0 59895 21600.00000 0 -11187423.911 302046.724 22934097.710 10 0 59895 22500.00000 0 -11016215.215 -2515420.525 22879717.675 10 0 59895 23400.00000 0 -11046892.755 -5304090.048 22381534.856 10 0 59895 24300.00000 0 -11270692.661 -7995818.122 21449140.439 10 0 59895 25200.00000 0 -11667186.408 -10525823.069 20100541.103 10 0 59895 26100.00000 0 -12205191.530 -12835136.233 18361818.352 10 0 59895 27000.00000 0 -12844151.980 -14872817.254 16266631.959 10 0 59895 27900.00000 0 -13535930.773 -16597842.319 13855576.120 10 0 59895 28800.00000 0 -14226940.118 -17980587.081 11175399.862 10 0 59895 29700.00000 0 -14860519.685 -19003842.676 8278105.893 10 0 59895 30600.00000 0 -15379463.004 -19663322.619 5219944.766 10 0 59895 31500.00000 0 -15728585.103 -19967639.262 2060323.527 10 0 59895 32400.00000 0 -15857222.415 -19937750.992 -1139350.003 10 0 59895 33300.00000 0 -15721558.545 -19605903.721 -4316864.559 10 0 59895 34200.00000 0 -15286676.410 -19014111.508 -7410420.472 10 0 59895 35100.00000 0 -14528248.767 -18212240.943 -10359838.055 10 0 59895 36000.00000 0 -13433794.279 -17255780.681 -13107735.051 10 0 59895 36900.00000 0 -12003444.666 -16203391.007 -15600649.312 10 0 59895 37800.00000 0 -10250189.228 -15114337.584 -17790084.257 10 0 59895 38700.00000 0 -8199585.169 -14045918.348 -19633456.272 10 0 59895 39600.00000 0 -5888944.807 -13050992.652 -21094925.289 10 0 59895 40500.00000 0 -3366032.795 -12175717.183 -22146092.385 10 0 59895 41400.00000 0 -687327.024 -11457584.180 -22766551.015 10 0 59895 42300.00000 0 2084084.703 -10923844.467 -22944281.395 10 0 59895 43200.00000 0 4880885.128 -10590381.397 -22675880.805 10 0 59895 44100.00000 0 7634086.462 -10461082.553 -21966625.677 10 0 59895 45000.00000 0 10275661.695 -10527735.080 -20830364.623 10 0 59895 45900.00000 0 12741139.383 -10770448.297 -19289244.762 10 0 59895 46800.00000 0 14972054.540 -11158585.115 -17373276.820 10 0 59895 47700.00000 0 16918154.274 -11652162.291 -15119747.619 10 0 59895 48600.00000 0 18539267.129 -12203659.857 -12572491.470 10 0 59895 49500.00000 0 19806759.203 -12760162.793 -9781034.669 10 0 59895 50400.00000 0 20704517.257 -13265744.064 -6799629.939 10 0 59895 51300.00000 0 21229419.032 -13663987.939 -3686199.723 10 0 59895 52200.00000 0 21391272.386 -13900546.648 -501209.077 10 0 59895 53100.00000 0 21212227.125 -13925622.045 2693509.587 10 0 59895 54000.00000 0 20725685.585 -13696267.222 5835956.857 10 0 59895 54900.00000 0 19974758.864 -13178410.614 8865168.273 10 0 59895 55800.00000 0 19010334.633 -12348516.998 11722394.396 10 0 59895 56700.00000 0 17888838.459 -11194815.062 14352236.203 10 0 59895 57600.00000 0 16669783.185 -9718039.451 16703714.073 10 0 59895 58500.00000 0 15413209.464 -7931655.609 18731250.062 10 0 59895 59400.00000 0 14177124.731 -5861557.191 20395545.083 10 0 59895 60300.00000 0 13015047.662 -3545247.720 21664334.755 10 0 59895 61200.00000 0 11973760.479 -1030539.526 22513010.012 10 0 59895 62100.00000 0 11091362.593 1626177.187 22925091.128 10 0 59895 63000.00000 0 10395706.412 4362024.668 22892546.533 10 0 59895 63900.00000 0 9903280.255 7110001.935 22415950.450 10 0 59895 64800.00000 0 9618584.708 9801526.485 21504476.306 10 0 59895 65700.00000 0 9534028.360 12369049.330 20175725.628 10 0 59895 66600.00000 0 9630347.293 14748635.965 18455395.143 10 0 59895 67500.00000 0 9877530.930 16882407.057 16376787.625 10 0 59895 68400.00000 0 10236215.646 18720738.114 13980174.974 10 0 59895 69300.00000 0 10659487.868 20224126.829 11312024.907 10 0 59895 70200.00000 0 11095021.012 21364650.555 8424105.385 10 0 59895 71100.00000 0 11487456.229 22126952.968 5372483.446 10 0 59895 72000.00000 0 11780926.256 22508718.412 2216437.566 10 0 59895 72900.00000 0 11921615.356 22520614.096 -982695.355 10 0 59895 73800.00000 0 11860246.204 22185702.367 -4162715.820 10 0 59895 74700.00000 0 11554387.553 21538347.985 -7261776.411 10 0 59895 75600.00000 0 10970483.911 20622666.755 -10219591.010 10 0 59895 76500.00000 0 10085519.870 19490581.170 -12978614.269 10 0 59895 77400.00000 0 8888247.370 18199565.582 -15485167.494 10 0 59895 78300.00000 0 7379922.625 16810176.558 -17690488.368 10 0 59895 79200.00000 0 5574520.242 15383473.059 -19551683.618 10 0 59895 80100.00000 0 3498414.267 13978435.613 -21032565.726 10 0 59895 81000.00000 0 1189538.440 12649493.445 -22104357.405 10 0 59895 81900.00000 0 -1303940.205 11444263.668 -22746250.275 10 0 59895 82800.00000 0 -3925379.646 10401597.470 -22945807.131 10 0 59895 83700.00000 0 -6611780.381 9550014.993 -22699200.390 10 0 59895 84600.00000 0 -9296174.462 8906593.986 -22011282.457 10 0 59895 85500.00000 0 -11910186.925 8476358.135 -20895486.989 10 0 59896 0.00000 0 -14386663.307 8252189.771 -19373563.442 10 0 59896 900.00000 0 -16662255.628 8215269.512 -17475149.312 10 0 59896 1800.00000 0 -18679856.342 8336023.514 -15237190.728 10 0 59896 2700.00000 0 -20390783.906 8575537.003 -12703219.951 10 0 59896 3600.00000 0 -21756626.162 8887373.908 -9922505.892 10 0 59896 4500.00000 0 -22750666.701 9219724.790 -6949093.547 10 0 59896 5400.00000 0 -23358835.314 9517791.685 -3840751.312 10 0 59896 6300.00000 0 -23580143.818 9726308.453 -657846.811 10 0 59896 7200.00000 0 -23426590.046 9792089.636 2537826.543 10 0 59896 8100.00000 0 -22922535.190 9666499.678 5684249.246 10 0 59896 9000.00000 0 -22103581.677 9307737.815 8720378.184 10 0 59896 9900.00000 0 -21014999.620 8682841.871 11587328.335 10 0 59896 10800.00000 0 -19709768.671 7769326.108 14229510.916 10 0 59896 11700.00000 0 -18246317.907 6556383.712 16595706.150 10 0 59896 12600.00000 0 -16686058.787 5045602.863 18640050.248 10 0 59896 13500.00000 0 -15090814.478 3251165.605 20322918.152 10 0 59896 14400.00000 0 -13520252.808 1199520.250 21611685.696 10 0 59896 15300.00000 0 -12029429.707 -1071460.077 22481357.096 10 0 59896 16200.00000 0 -10666545.074 -3513798.995 22915046.397 10 0 59896 17100.00000 0 -9471004.014 -6071165.017 22904304.018 10 0 59896 18000.00000 0 -8471863.691 -8680975.057 22449282.368 10 0 59896 18900.00000 0 -7686729.944 -11276767.490 21558737.276 10 0 59896 19800.00000 0 -7121149.249 -13790747.712 20249864.878 10 0 59896 20700.00000 0 -6768521.113 -16156401.628 18547976.466 10 0 59896 21600.00000 0 -6610534.343 -18311069.580 16486016.770 10 0 59896 22500.00000 0 -6618108.869 -20198374.362 14103933.985 10 0 59896 23400.00000 0 -6752803.589 -21770402.537 11447912.795 10 0 59896 24300.00000 0 -6968631.017 -22989548.307 8569484.399 10 0 59896 25200.00000 0 -7214202.231 -23829942.734 5524530.072 10 0 59896 26100.00000 0 -7435111.392 -24278408.204 2372197.310 10 0 59896 27000.00000 0 -7576458.605 -24334897.773 -826250.519 10 0 59896 27900.00000 0 -7585403.700 -24012400.601 -4008628.422 10 0 59896 28800.00000 0 -7413641.962 -23336317.360 -7113044.076 10 0 59896 29700.00000 0 -7019695.825 -22343331.752 -10079107.879 10 0 59896 30600.00000 0 -6370924.223 -21079825.839 -12849114.423 10 0 59896 31500.00000 0 -5445163.249 -19599906.184 -15369171.478 10 0 59896 32400.00000 0 -4231927.279 -17963124.260 -17590253.916 10 0 59896 33300.00000 0 -2733118.480 -16231987.545 -19469161.550 10 0 59896 34200.00000 0 -963213.507 -14469366.415 -20969361.874 10 0 59896 35100.00000 0 1051081.703 -12735906.067 -22061701.328 10 0 59896 36000.00000 0 3271695.656 -11087552.277 -22724971.356 10 0 59896 36900.00000 0 5650538.252 -9573294.670 -22946318.527 10 0 59896 37800.00000 0 8131275.425 -8233221.768 -22721491.128 10 0 59896 38700.00000 0 10651458.081 -7096968.623 -22054917.827 10 0 59896 39600.00000 0 13144916.945 -6182621.256 -20959617.200 10 0 59896 40500.00000 0 15544323.994 -5496122.704 -19456940.204 10 0 59896 41400.00000 0 17783814.162 -5031204.291 -17576150.746 10 0 59896 42300.00000 0 19801558.305 -4769843.732 -15353852.686 10 0 59896 43200.00000 0 21542180.624 -4683229.390 -12833274.488 10 0 59896 44100.00000 0 22958920.107 -4733188.812 -10063425.487 10 0 59896 45000.00000 0 24015446.208 -4874020.143 -7098140.342 10 0 59896 45900.00000 0 24687253.510 -5054648.038 -3995030.411 10 0 59896 46800.00000 0 24962577.760 -5221012.140 -814362.616 10 0 59896 47700.00000 0 24842795.685 -5318586.446 2382112.081 10 0 59896 48600.00000 0 24342292.720 -5294922.456 5532357.591 10 0 59896 49500.00000 0 23487805.051 -5102108.149 8575255.559 10 0 59896 50400.00000 0 22317264.351 -4699038.544 11451788.616 10 0 59896 51300.00000 0 20878194.321 -4053401.645 14106181.175 10 0 59896 52200.00000 0 19225726.672 -3143295.679 16486975.924 10 0 59896 53100.00000 0 17420319.897 -1958409.126 18548025.486 10 0 59896 54000.00000 0 15525276.199 -500713.346 20249380.723 10 0 59896 54900.00000 0 13604160.057 1215362.070 21558059.179 10 0 59896 55800.00000 0 11718225.688 3163279.486 22448679.501 10 0 59896 56700.00000 0 9923959.973 5305255.620 22903950.256 10 0 59896 57600.00000 0 8270842.415 7593601.562 22915004.237 10 0 59896 58500.00000 0 6799414.619 9972486.090 22481572.020 10 0 59896 59400.00000 0 5539738.878 12380050.506 21611991.443 10 0 59896 60300.00000 0 4510309.303 14750788.571 20323052.461 10 0 59896 61200.00000 0 3717460.397 17018093.840 18639679.794 10 0 59896 62100.00000 0 3155297.210 19116869.604 16594458.666 10 0 59896 63000.00000 0 2806149.686 20986093.516 14227011.790 10 0 59896 63900.00000 0 2641531.903 22571230.498 11583238.783 10 0 59896 64800.00000 0 2623565.705 23826393.363 8714431.815 10 0 59896 65700.00000 0 2706808.579 24716160.610 5676283.936 10 0 59896 66600.00000 0 2840408.426 25216974.916 2527809.019 10 0 59896 67500.00000 0 2970493.720 25318063.057 -669805.851 10 0 59896 68400.00000 0 3042697.317 25021838.134 -3854392.997 10 0 59896 69300.00000 0 3004706.268 24343766.698 -6964018.007 10 0 59896 70200.00000 0 2808728.585 23311705.983 -9938190.521 10 0 59896 71100.00000 0 2413771.343 21964738.960 -12719047.618 10 0 59896 72000.00000 0 1787632.338 20351556.117 -15252485.902 10 0 59896 72900.00000 0 908519.709 18528452.259 -17489219.586 10 0 59896 73800.00000 0 -233770.251 16557022.702 -19385743.492 10 0 59896 74700.00000 0 -1637168.082 14501655.981 -20905181.835 10 0 59896 75600.00000 0 -3287168.982 12426928.480 -22018006.252 10 0 59896 76500.00000 0 -5157201.443 10395010.286 -22702609.247 10 0 59896 77400.00000 0 -7209512.092 8463190.878 -22945722.120 10 0 59896 78300.00000 0 -9396530.547 6681627.831 -22742669.663 10 0 59896 79200.00000 0 -11662657.860 5091412.090 -22097457.052 10 0 59896 80100.00000 0 -13946404.315 3723029.886 -21022687.608 10 0 59896 81000.00000 0 -16182787.777 2595284.489 -19539313.314 10 0 59896 81900.00000 0 -18305892.871 1714721.562 -17676223.134 10 0 59896 82800.00000 0 -20251484.366 1075580.748 -15469677.305 10 0 59896 83700.00000 0 -21959565.982 660273.935 -12962598.674 10 0 59896 84600.00000 0 -23376777.986 440368.499 -10203734.911 10 0 59896 85500.00000 0 -24458533.586 378032.708 -7246708.055 99